AO-07 1 07530U 74089B 26035.28124144 -.00000050 00000-0 -25436-4 0 9996 2 07530 101.9970 47.1129 0012289 26.0559 42.8268 12.53695606343864 UO-11 1 14781U 84021B 26035.17292284 .00002166 00000-0 22818-3 0 9996 2 14781 97.7892 2.4024 0006035 263.3717 96.6814 14.90374650237319 AO-27 1 22825U 93061C 26035.14276677 .00000140 00000-0 70292-4 0 9993 2 22825 98.7054 102.5152 0009285 127.0285 233.1748 14.30901115687979 FO-29 1 24278U 96046B 26035.22916246 -.00000003 00000-0 29638-4 0 9992 2 24278 98.5425 262.1680 0350876 81.4246 282.6480 13.53266457455182 GO-32 1 25397U 98043D 26035.23352311 .00000104 00000-0 65047-4 0 9997 2 25397 98.9981 24.6976 0000632 186.9028 173.2142 14.24396132432409 ISS 1 25544U 98067A 26035.01771291 .00010297 00000-0 19874-3 0 9995 2 25544 51.6311 238.8105 0011108 61.9619 298.2491 15.48378125551111 NO-44 1 26931U 01043C 26035.24085746 .00000189 00000-0 10169-3 0 9999 2 26931 67.0488 228.1177 0007050 266.5609 93.4686 14.31892110271411 SO-50 1 27607U 02058C 26034.82620247 .00002026 00000-0 25731-3 0 9994 2 27607 64.5527 181.4894 0074250 286.8165 72.4806 14.82641388244688 CO-55 1 27844U 03031E 26034.98326989 .00000393 00000-0 18920-3 0 9999 2 27844 98.6772 45.2037 0009075 206.7176 153.3536 14.24236363172715 CO-57 1 27848U 03031J 26034.97578610 .00000324 00000-0 16177-3 0 9998 2 27848 98.6802 45.0160 0008672 226.1677 133.8785 14.23535876172429 RS-22 1 27939U 03042A 26035.31563749 .00001300 00000-0 20981-3 0 9990 2 27939 98.3392 215.9561 0010925 335.7396 146.0826 14.73152720195989 CO-58 1 28895U 05043F 26035.14140424 .00002317 00000-0 37568-3 0 9995 2 28895 98.2773 188.1479 0013156 267.2439 92.7262 14.72162245 82177 CO-65 1 32785U 08021C 26035.20699915 .00007618 00000-0 50040-3 0 9997 2 32785 97.8161 14.1057 0010926 115.6381 244.5976 15.07866208965145 CO-66 1 32791U 08021J 26034.48164572 .00019703 00000-0 73306-3 0 9997 2 32791 97.7483 26.5409 0005531 74.4728 285.7120 15.27531158966840 RS-30 1 32953U 08025A 26035.22878255 .00000020 00000-0 71070-4 0 9993 2 32953 82.4995 78.1506 0018461 239.5406 120.3851 12.43174583803174 SRMSAT 1 37841U 11058D 26034.70280699 .00000463 00000-0 10722-3 0 9992 2 37841 19.9708 147.4047 0011632 174.9069 332.8041 14.11534324738934 ZACUBE-1 1 39417U 13066B 26035.11191732 .00008641 00000-0 68931-3 0 9990 2 39417 97.8168 356.7789 0041137 335.9522 23.9779 14.99884796660773 Delfi-N3xt 1 39428U 13066N 26035.31254288 .00011304 00000-0 10310-2 0 9997 2 39428 97.8353 315.9418 0075772 289.1170 70.1856 14.93070733654784 GOMX-1 1 39430U 13066Q 26035.31289793 .00001854 00000-0 28575-3 0 9991 2 39430 97.6573 244.0970 0130354 143.7024 217.3113 14.68944138650402 LO-74 1 39440U 13066AA 26035.31566821 .00005059 00000-0 48062-3 0 9996 2 39440 97.8773 343.9596 0060589 107.2536 253.5326 14.92546667657165 AO-73 1 39444U 13066AE 26035.18871121 .00012606 00000-0 82803-3 0 9994 2 39444 97.8138 4.1893 0036322 297.6255 62.1286 15.07217658659613 DTUSAT-2 1 40030U 14033W 26034.86851935 .00010172 00000-0 58198-3 0 9993 2 40030 98.0808 24.3850 0007452 343.3029 16.7954 15.12848913632517 EO-80 1 40032U 14033Y 26034.74312264 .00010083 00000-0 57509-3 0 9995 2 40032 98.0693 23.5740 0005599 271.0733 88.9855 15.12974043632479 LILACSAT-2 1 40908U 15049K 26035.34005689 .00018508 00000-0 37094-3 0 9999 2 40908 97.4852 67.4308 0008238 28.0235 332.1457 15.46740973575184 Horyu-4 1 41340U 16012D 26035.06811737 .00077460 00000-0 10105-2 0 9994 2 41340 30.9926 302.1395 0002412 37.4204 322.6615 15.57331621549855 Lapan A3 1 41603U 16040E 26035.26125457 .00004581 00000-0 15004-3 0 9994 2 41603 97.1456 35.8970 0012096 126.0564 234.1800 15.32072874534450 CAS-2T 1 41847U 16066G 26035.17835205 .00002156 00000-0 31102-3 0 9994 2 41847 98.3950 112.3882 0343284 172.8452 187.7826 14.44342287485597 TechnoSat 1 42829U 17042E 26035.23161060 .00004741 00000-0 34656-3 0 9997 2 42829 97.4096 198.1664 0017893 182.0756 178.0399 15.03955867466714 AO-91 1 43017U 17073E 26035.14134106 .00009516 00000-0 43437-3 0 9994 2 43017 97.4902 265.1546 0159282 67.3119 294.4862 15.10105010445294 S-Net D 1 43186U 18014G 26035.26254192 .00007026 00000-0 37758-3 0 9991 2 43186 97.5472 300.9456 0010160 112.9238 247.3068 15.15162673438629 S-Net B 1 43187U 18014H 26035.27149876 .00007246 00000-0 38952-3 0 9996 2 43187 97.5477 300.9369 0010849 109.5255 250.7149 15.15134892438623 S-Net A 1 43188U 18014J 26035.26202961 .00006966 00000-0 37428-3 0 9996 2 43188 97.5486 301.1125 0010765 110.1039 250.1352 15.15168502438627 S-Net C 1 43189U 18014K 26035.27468176 .00007343 00000-0 39461-3 0 9999 2 43189 97.5503 301.1791 0012201 104.5541 255.7046 15.15127013437171 Ten-Koh 1 43677U 18084G 26035.27322174 .00003970 00000-0 30605-3 0 9998 2 43677 98.0716 222.0717 0009208 203.4204 156.6601 15.02201900396200 PO-101 1 43678U 18084H 26035.29876274 .00001510 00000-0 12729-3 0 9991 2 43678 98.1069 225.9627 0008173 231.5235 128.5255 14.99792358396290 QO-100 1 43700U 18090A 26035.20601146 .00000000 00000-0 00000-0 0 9998 2 43700 0.0147 118.5802 0002377 240.3820 235.3563 1.00269623 26342 MinXSS-2 1 43758U 18099A 26035.16963025 .00034762 00000-0 92673-3 0 9994 2 43758 97.4699 108.3626 0009017 31.0205 329.1570 15.38039394393622 AO-95 1 43770U 18099N 26035.15575996 .00013894 00000-0 58419-3 0 9996 2 43770 97.4583 96.0741 0010600 96.2891 263.9553 15.23474362392945 SNUSat 2 1 43782U 18099AA 26035.08877128 .00011030 00000-0 52180-3 0 9992 2 43782 97.4262 90.6001 0011765 47.8968 312.3265 15.19480449392803 SnugLite 1 43784U 18099AC 26035.12892865 .00014032 00000-0 58361-3 0 9996 2 43784 97.4073 90.8905 0004004 57.0484 303.1138 15.23880346393032 ITASat 1 1 43786U 18099AE 26035.14260477 .00008917 00000-0 45204-3 0 9995 2 43786 97.4237 89.3522 0014609 96.2754 264.0144 15.17093426392726 EAGLET 1 1 43790U 18099AJ 26035.13219396 .00004997 00000-0 29616-3 0 9996 2 43790 97.4436 88.2953 0013047 86.6157 273.6566 15.11757023392226 ESEO 1 43792U 18099AL 26035.11995163 .00002501 00000-0 18602-3 0 9991 2 43792 97.4173 78.1136 0013547 70.5316 289.7373 15.03768874391805 JO-97 1 43803U 18099AX 26035.12717976 .00019869 00000-0 70688-3 0 9996 2 43803 97.4326 97.8232 0006704 34.3465 325.8207 15.28989632393267 Suomi 100 1 43804U 18099AY 26035.09821964 .00015849 00000-0 63608-3 0 9994 2 43804 97.4391 96.1784 0011306 36.7621 323.4390 15.25004238393116 ISAT 1 43879U 18111D 26035.26098349 .00054364 00000-0 10679-2 0 9997 2 43879 97.5910 322.3029 0009085 73.6333 286.5914 15.47090322390507 UWE-4 1 43880U 18111E 26035.25077445 .00032448 00000-0 87380-3 0 9995 2 43880 97.5871 318.3875 0012017 83.5151 276.7461 15.37710953390298 Sparrow 1 43881U 18111F 26035.28492787 .00062087 00000-0 10975-2 0 9996 2 43881 97.6108 326.4406 0008114 96.6137 263.6037 15.50096114390649 Prox-1 1 44339U 19036A 26035.02477536 .00017672 00000-0 18964-2 0 9995 2 44339 23.9952 281.3985 0006964 296.7027 63.2759 14.86945051353601 Taurus 1 1 44530U 19059C 26035.35265803 .00005672 00000-0 94935-3 0 9991 2 44530 98.6261 192.2149 0008315 8.3172 351.8168 14.70218602339116 TO-108 1 44881U 19093C 26035.29370089 .00001531 00000-0 17993-3 0 9993 2 44881 97.7679 110.7125 0014019 158.7306 201.4495 14.86259903331676 FloripaSat 1 1 44885U 19093G 26035.21707362 .00010457 00000-0 79746-3 0 9998 2 44885 97.7904 128.6602 0011964 156.0771 204.1011 15.02159543332675 RS-44 1 44909U 19096E 26035.33383173 .00000012 00000-0 -34412-5 0 9991 2 44909 82.5175 67.9907 0218660 95.0033 267.6067 12.79746799285355 SALSAT 1 46495U 20068K 26034.48477916 .00010160 00000-0 38041-3 0 9992 2 46495 97.8823 29.6576 0011930 57.5986 302.6405 15.27442654294933 CSS (TIANHE-1) 1 48274U 21035A 26035.29570937 .00017580 00000-0 22165-3 0 9994 2 48274 41.4675 51.1227 0005973 356.5106 3.5690 15.59172508272391 CUTE 1 49263U 21088D 26035.24219587 .00037309 00000-0 39897-3 0 9998 2 49263 97.4276 125.6494 0004616 78.3699 281.8078 15.63793629241643 TeikyoSat 4 1 49396U 21102B 26035.05638132 .00002273 00000-0 14764-3 0 9990 2 49396 97.3834 69.6460 0013167 37.5110 322.7036 15.08944192232646 Z-Sat 1 49399U 21102E 26035.28142502 .00004059 00000-0 20766-3 0 9992 2 49399 97.3512 74.6163 0016867 357.2982 2.8157 15.17065013233284 KOSEN 1 1 49402U 21102H 26035.07959759 .00009621 00000-0 39094-3 0 9998 2 49402 97.3389 79.8755 0013208 323.4062 36.6272 15.24689230233728 HO-113 1 50466U 21131B 26035.31865624 .00000515 00000-0 17321-3 0 9998 2 50466 98.5002 128.4620 0005012 129.5264 230.6369 14.41203805215978 SNUGLITE 2 1 52899U 22065F 26035.32031675 .00001545 00000-0 30374-3 0 9996 2 52899 98.1974 180.5716 0008605 83.1661 277.0521 14.64030383191552 UmKA 1 (RS40S) 1 57172U 23091G 26035.24667105 .00008277 00000-0 39717-3 0 9998 2 57172 97.5247 94.4877 0012382 218.3364 141.6991 15.19070462143813 CubeBel-2 (EU11S) 1 57175U 23091K 26035.26877546 .00013608 00000-0 53532-3 0 9990 2 57175 97.5242 97.5078 0009811 218.2387 141.8156 15.25728287144015 RS-38S 1 57189U 23091Z 26035.32325444 .00018658 00000-0 61545-3 0 9990 2 57189 97.5266 102.4847 0008097 176.4805 183.6494 15.31453393144324 SONATE-2 1 59112U 24043Q 26035.28255735 .00034491 00000-0 64215-3 0 9996 2 59112 97.5359 178.6850 0008253 334.3194 25.7646 15.48747079107255 MO-122 1 60209U 24125G 26035.10901925 .00040473 00000-0 70433-3 0 9992 2 60209 97.2482 250.6656 0013541 355.4687 4.6440 15.50570937 88863 GRBBeta 1 60237U 24128C 26035.16758703 .00005790 00000-0 40345-3 0 9998 2 60237 61.9919 322.5608 0054085 107.2396 253.4626 15.05390247 86234 Curium One 1 60242U 24128H 26035.32143481 .00010768 00000-0 64810-3 0 9997 2 60242 61.9808 315.5530 0054035 104.2159 256.4946 15.10075401 86373 ROBUSTA-3A 1 60243U 24128J 26035.15071102 .00011981 00000-0 73288-3 0 9996 2 60243 61.9887 317.9360 0054553 101.5235 259.1991 15.09380630 86324 CatSat 1 60246U 24125J 26035.11778719 .00049130 00000-0 10059-2 0 9993 2 60246 97.2249 247.0898 0029469 315.4472 44.4408 15.45471235 86754 HYPERVIEW-1G (RS66S) 1 61772U 24199AP 26035.30900193 .00057765 00000-0 89978-3 0 9993 2 61772 97.3145 270.6100 0011085 50.2229 309.9999 15.53629215113917 AO-123 1 61781U 24199AY 26035.27610491 .00011181 00000-0 34817-3 0 9992 2 61781 97.3199 265.1768 0015939 67.0813 293.2110 15.33320990113547 HADES-R (SO-124) 1 62690U 25009CK 26032.99082620 .05664363 23962-5 28116-2 0 9998 2 62690 97.3536 123.7794 0009923 302.1245 57.9081 16.20799086 58844 HYDRA-T 1 62692U 25009CM 26028.19742799 .10589489 24473-5 20739-2 0 9999 2 62692 97.3569 119.0624 0010828 297.3030 62.7162 16.31546071 58115 JINJUSat 1B 1 63210U 25052A 26035.16729427 .00019906 00000-0 71122-3 0 9991 2 63210 97.4168 292.0616 0003227 162.9152 197.2197 15.28865432 49749 NUSHSAT 1 1 63211U 25052B 26035.25041601 .00022736 00000-0 77642-3 0 9991 2 63211 97.4148 292.3527 0003009 163.6887 196.4451 15.30314640 49773 TEVEL2-4 1 63213U 25052D 26035.21228856 .00020564 00000-0 72140-3 0 9993 2 63213 97.4068 291.7488 0001755 169.7742 190.3534 15.29459758 49759 TEVEL2-5 1 63214U 25052E 26035.15537626 .00020473 00000-0 72055-3 0 9999 2 63214 97.4064 291.6712 0001781 170.1812 189.9463 15.29354876 49747 TEVEL2-6 1 63215U 25052F 26035.22970524 .00019822 00000-0 69865-3 0 9997 2 63215 97.4068 291.7319 0001846 172.6713 187.4555 15.29313492 49750 TEVEL2-1 1 63217U 25052H 26034.23749943 .00019634 00000-0 70117-3 0 9991 2 63217 97.4049 290.5088 0001218 201.0424 159.0766 15.28887177 49596 TEVEL2-3 1 63218U 25052J 26035.21751486 .00019352 00000-0 68957-3 0 9992 2 63218 97.4047 291.4927 0001320 198.2307 161.8886 15.28961990 49745 TEVEL2-2 1 63219U 25052K 26035.21991690 .00019568 00000-0 69781-3 0 9991 2 63219 97.4046 291.4871 0001402 200.7780 159.3403 15.28934532 49747 TEVEL2-9 1 63237U 25052AD 26035.23740789 .00019595 00000-0 73380-3 0 9994 2 63237 97.4108 291.1300 0004628 250.5459 109.5280 15.27315340 49704 TEVEL2-7 1 63238U 25052AE 26035.19174496 .00019699 00000-0 74200-3 0 9993 2 63238 97.4106 291.0465 0004756 250.8268 109.2457 15.27121898 49691 TEVEL2-8 1 63239U 25052AF 26035.26378722 .00019508 00000-0 73533-3 0 9997 2 63239 97.4105 291.0999 0004669 251.9869 108.0861 15.27099732 49704 HYDRA-W 1 63490U 25052BL 26034.51425018 .00134127 00000-0 21869-2 0 9993 2 63490 97.4011 294.4102 0003078 207.6151 152.4939 15.52126203 49876 HADES-ICM (SO-125) 1 63492U 25052BN 26035.24427975 .00097956 00000-0 18108-2 0 9990 2 63492 97.4016 294.6879 0003577 220.7653 139.3331 15.48699348 49952 Dragonfly 1 65729U 98067XH 26031.05194254 .08662331 12285-4 96629-3 0 9997 2 65729 51.6000 237.6139 0006569 265.0285 94.9990 16.36242872 20999 RSP-03 1 65732U 98067XL 26034.53636242 .00558295 13872-3 14023-2 0 9999 2 65732 51.6167 223.4903 0005522 250.4003 109.6408 15.95057000 21500 BOTAN 1 65942U 98067XP 26034.91604493 .00306933 00000-0 14689-2 0 9991 2 65942 51.6183 227.5880 0005467 240.0563 119.9896 15.81334182 18228 CEVROSAT1 1 66309U 25248S 26035.22095824 .00006421 00000-0 31541-3 0 9993 2 66309 45.4050 113.8451 0002705 351.6710 8.4130 15.18880270 14285 SPIRONE 1 66657U 25274H 26035.30682298 .00003035 00000-0 29808-3 0 9995 2 66657 97.7430 326.6162 0014014 95.0126 265.2694 14.92845456 10396 K-HERO 1 66660U 25274L 26035.28367339 .00003667 00000-0 35452-3 0 9995 2 66660 97.7434 326.6522 0015894 99.6297 260.6719 14.93318656 10395 SNUGLITE-III DURI 1 66661U 25274M 26035.27768066 .00003160 00000-0 30540-3 0 9998 2 66661 97.7430 326.6574 0016438 100.8698 259.4373 14.93422252 10394 SilverSat 1 66909U 98067XV 26034.96317679 .00118150 00000-0 13238-2 0 9998 2 66909 51.6261 236.1970 0002908 193.0582 167.0336 15.61798007 9906 SAKHACUBE-CHOLBON 1 67290U 25313AU 26035.22904164 .00013194 00000-0 57834-3 0 9990 2 67290 97.4069 112.1153 0011050 102.9213 257.3258 15.22064624 5739 QMR-KWT 1 67291U 25313AV 26035.16068788 .00018441 00000-0 80016-3 0 9995 2 67291 97.4070 112.0540 0010764 102.8934 257.3505 15.22337980 5723 IO-86 1 40931U 25360.30710720 .00000000 00000-0 12800-3 0 00 2 40931 6.0006 332.5373 0012733 338.8432 8.1437 14.79075515 01